Location: Poughquag
(41.6090°N, 73.6820°W)
Time: 04:31:52
(UTC-04:00)

OTV 5 (USA 277) - Visible Passes

Search period start: 24 April 2018 00:00
Search period end: 04 May 2018 00:00
Orbit: 308 x 325 km, 54.5° (Epoch: 23 April)

Date Brightness Start Highest point End Pass type
(mag) Time Alt. Az. Time Alt. Az. Time Alt. Az.
27 Apr ? 22:26:42 10° N 22:26:58 11° N 22:26:58 11° N visible
28 Apr ? 22:40:27 10° NNW 22:40:48 12° NNW 22:40:48 12° NNW visible
29 Apr ? 22:54:36 10° NW 22:54:38 10° NW 22:54:38 10° NW visible
30 Apr ? 21:35:24 10° NNW 21:37:09 15° NNE 21:37:37 15° NE visible
01 May ? 21:49:23 10° NNW 21:51:30 28° NNE 21:51:30 28° NNE visible
02 May ? 20:30:30 10° N 20:31:39 12° NNE 20:32:48 10° NE visible
02 May ? 22:03:40 10° NW 22:05:25 35° NW 22:05:25 35° NW visible
03 May ? 20:44:15 10° NNW 20:46:25 20° NNE 20:48:29 10° E visible
03 May ? 22:18:19 10° WNW 22:19:22 19° W 22:19:22 19° W visible
